GREEN DIAMOND

Last updated on Fri Jul 21 2017 00:18:26 GMT+0000 (Coordinated Universal Time)

1 42785U 17036W 17200.92293112 .00001438 00000-0 68663-4 0 9991 2 42785 97.4484 260.3747 0013421 153.2295 206.9635 15.20596481 4074
UTC large
Height (km)
Speed (km/s)
/
Latitude / Longitude
Inclination (degrees)
Orbital Period (minutes)
Azimuth
Elevation
Range (km)
Doppler Factor

Next 0 passes for location: London (51.5072 / 0.1276)

Sorry there are no passes over London.